Theta_e
349 350 352 353 351 354 354 356 359 358 358 349 347 348 350 358 358 360 360 360 362 357 354 351 349 348 353 352 352 354 354 355 354 349 346 351 351 350 352 351 353 352 352 354 352 352 352 353 353 353 353 353 350 349 351 353 352 353 353 352 349 346 349 350 349 350 349 347 345 345 344 343 343 343 343 343 345 347 348 349 350 350 351 351 351 351 350 350 349 348 348 348 348 348 349 349 348
352 353 354 353 353 356 357 359 359 353 348 341 343 349 352 360 358 358 359 359 360 355 353 350 349 352 352 351 351 353 353 352 351 351 349 350 351 351 351 351 352 352 353 353 352 352 352 353 353 353 353 353 352 351 353 354 353 352 352 348 346 347 348 348 348 348 347 345 344 344 344 343 343 343 343 343 345 347 348 349 350 350 350 351 351 351 350 350 349 348 348 348 348 348 348 348 348
352 354 354 353 354 354 358 358 356 347 339 337 340 351 356 358 357 356 357 356 356 354 353 350 351 352 351 353 353 353 354 350 347 348 349 350 352 351 351 351 352 352 352 352 353 353 352 353 352 352 352 353 354 354 354 353 352 351 349 346 346 347 344 344 345 343 342 342 343 344 344 344 343 343 343 344 346 347 348 348 350 350 350 351 350 350 350 349 349 349 348 348 349 349 348 347 348
352 353 353 354 356 355 359 357 357 348 336 336 338 351 357 356 357 355 354 354 355 354 353 351 352 352 352 355 353 353 354 349 348 349 349 351 352 351 351 351 351 351 351 352 353 353 352 351 350 351 352 352 352 353 353 352 350 350 348 346 345 343 340 341 342 340 340 341 343 344 345 345 344 344 344 345 346 346 347 347 349 350 350 351 350 350 349 349 349 349 349 349 348 348 347 347 347
352 354 353 355 359 358 359 357 358 349 338 339 339 349 357 354 356 354 354 354 354 354 353 352 355 353 352 354 352 353 352 348 349 350 350 351 352 351 351 351 351 351 351 352 353 353 351 351 351 350 351 351 350 351 353 352 349 348 347 346 343 339 339 341 341 340 341 341 343 344 345 345 344 345 345 346 346 345 345 346 348 350 351 351 351 350 349 349 350 350 349 349 348 348 348 348 347
351 353 353 354 357 356 358 352 350 348 346 350 346 350 356 353 355 355 355 354 353 353 353 353 354 354 353 351 351 351 350 349 349 350 351 352 352 352 351 352 351 351 351 352 352 353 351 350 349 349 350 350 350 350 350 350 348 347 347 345 342 339 340 340 340 340 341 342 344 344 345 345 345 344 345 346 346 345 344 344 348 350 351 351 350 350 350 350 350 349 347 348 348 348 349 348 349
351 354 354 356 357 356 359 350 346 348 350 354 351 351 354 353 354 355 356 355 354 353 353 353 352 354 355 351 351 351 350 351 350 350 351 352 352 352 352 351 352 351 352 352 351 352 351 349 349 349 349 349 349 348 347 347 347 347 347 344 340 339 340 340 340 340 341 343 344 344 345 346 345 345 346 346 347 345 343 343 347 349 350 350 350 350 350 350 349 348 347 347 346 348 349 349 349
352 355 354 359 361 357 357 350 350 351 351 352 352 352 353 353 353 355 356 356 356 354 353 352 351 356 355 351 353 353 352 351 350 351 351 352 352 352 352 352 352 351 352 353 352 351 350 350 350 349 349 348 347 345 345 346 347 347 346 341 338 339 339 339 340 341 342 343 343 344 345 346 346 346 346 346 347 345 343 344 347 348 349 350 350 349 349 348 348 346 346 346 345 346 348 348 348
352 356 357 360 360 355 352 349 350 352 354 353 351 353 353 352 352 355 356 356 355 354 353 352 351 356 355 353 355 353 353 352 351 352 351 351 352 352 352 352 352 352 352 353 353 352 351 349 346 344 346 345 345 345 346 347 346 343 341 339 337 338 338 339 340 341 342 343 343 344 345 347 347 346 346 347 347 346 344 344 345 346 347 348 348 348 348 348 347 346 345 345 345 344 346 348 348
353 356 362 362 358 350 342 342 345 349 352 351 352 353 353 352 352 355 356 356 354 354 354 351 352 355 354 354 354 352 352 352 351 351 351 352 352 352 352 352 352 352 353 353 353 353 353 351 345 342 342 342 344 346 347 346 344 340 338 337 337 337 338 339 340 341 341 342 343 344 346 347 347 346 347 347 348 346 344 341 342 344 345 345 346 347 348 348 347 346 346 346 346 345 345 346 347
355 355 360 360 353 343 336 338 343 346 347 349 352 352 353 352 353 355 355 356 354 355 353 352 354 353 353 353 353 352 352 352 351 351 351 352 352 352 352 352 352 353 353 353 353 353 353 353 350 346 343 342 345 347 347 345 344 341 338 338 338 338 339 339 340 341 341 341 343 344 345 347 347 347 347 348 348 345 342 338 338 343 345 344 345 346 348 348 347 347 347 346 345 345 345 346 347
359 357 359 357 350 346 343 343 344 346 348 350 353 352 353 352 354 356 356 357 355 356 354 352 354 352 353 354 352 352 352 352 351 351 352 352 352 352 352 352 352 353 353 353 353 353 353 353 353 351 348 347 347 348 348 346 345 343 341 340 340 340 340 341 340 340 340 341 342 344 345 346 346 346 346 346 345 343 341 335 337 344 345 345 346 346 347 347 347 348 347 346 345 344 344 346 348
358 359 359 355 352 354 351 347 345 347 350 352 353 352 352 353 356 355 355 356 355 355 354 352 350 351 354 353 353 351 351 351 351 351 352 352 352 352 352 352 352 352 352 352 353 353 353 353 353 353 352 350 349 349 348 348 347 345 343 342 341 341 341 341 340 341 341 342 343 344 345 345 345 345 345 345 343 342 341 337 341 346 346 347 347 346 347 347 347 348 347 346 345 344 344 346 349
357 357 358 357 356 356 352 346 344 343 346 351 352 351 353 354 355 354 354 356 355 354 353 351 349 352 354 354 354 350 350 351 351 351 352 352 352 352 352 351 352 352 352 352 352 353 353 353 353 353 353 352 350 350 349 349 349 347 345 344 343 343 342 342 341 341 342 343 344 344 345 345 345 345 344 344 343 343 342 338 341 347 347 347 347 346 348 349 348 348 348 346 345 345 346 347 349
356 356 357 359 356 352 347 344 342 340 344 350 351 352 353 353 353 353 354 357 356 352 351 352 349 352 353 355 355 350 350 351 351 351 352 352 352 352 352 351 352 352 352 352 352 352 353 353 353 353 353 352 351 350 350 350 349 348 347 346 345 343 343 343 342 342 343 344 345 345 345 345 345 345 344 343 344 346 346 340 339 344 346 347 347 347 348 350 349 350 350 346 344 345 347 348 349
353 356 359 358 353 347 345 344 342 340 344 350 351 351 354 352 352 354 353 354 355 352 351 352 350 350 351 352 353 351 351 351 351 351 351 352 352 352 352 351 352 351 351 352 352 351 352 353 353 353 353 353 352 351 350 351 350 348 347 346 345 344 344 343 344 344 344 345 346 346 346 346 346 345 346 346 347 349 348 343 340 343 346 347 349 349 349 350 350 352 351 348 344 344 348 348 348
351 358 361 356 351 346 346 345 340 338 342 349 351 351 354 355 353 353 352 352 354 353 351 351 350 350 350 351 352 352 351 351 351 351 351 352 352 352 352 352 352 352 352 352 352 351 352 353 352 353 354 353 352 351 351 351 350 349 348 347 346 346 345 345 345 345 346 348 348 347 346 347 348 347 347 348 348 350 348 344 342 341 344 348 350 350 350 351 351 352 351 349 346 345 347 348 348
354 362 360 352 354 352 350 349 342 340 343 348 351 351 354 356 355 353 353 354 355 353 352 351 351 351 351 353 353 352 351 351 351 351 351 351 352 352 352 352 352 352 352 352 351 351 352 352 352 352 353 353 352 351 350 351 350 350 349 348 348 348 349 349 349 349 349 350 350 348 347 347 347 346 347 348 349 349 348 345 342 340 343 349 352 350 349 351 350 351 351 349 347 346 347 350 350
357 362 359 354 358 355 351 349 343 342 344 347 351 352 352 355 355 353 355 357 355 355 355 353 353 353 352 353 352 352 351 351 351 351 351 351 352 351 351 351 352 352 352 353 352 352 352 352 352 352 353 352 352 351 350 350 350 350 350 350 350 350 351 351 351 350 350 350 350 349 348 347 347 347 345 345 346 347 345 344 343 343 346 350 351 349 349 350 348 349 349 347 347 347 348 351 352
357 358 359 358 357 353 350 349 347 346 346 346 349 351 352 354 354 353 355 358 356 356 356 354 355 354 352 351 352 352 351 351 351 350 351 351 351 351 351 351 351 352 352 352 353 353 352 352 352 352 353 352 352 351 350 350 349 351 351 350 351 351 351 352 352 351 350 349 349 348 348 347 346 347 345 343 346 348 346 344 345 346 348 350 350 350 350 350 348 348 348 347 348 349 351 352 351
357 358 360 358 353 353 352 350 349 347 345 344 347 351 352 353 353 353 355 358 357 356 355 355 355 354 352 350 351 353 352 351 351 350 350 350 351 351 350 351 351 351 352 352 353 353 353 353 353 352 352 351 352 352 352 351 349 351 352 351 351 352 352 352 351 350 349 348 348 348 347 347 346 346 345 344 347 348 346 346 347 349 349 350 349 351 353 351 351 350 349 350 351 351 351 350 349
357 359 359 357 354 355 354 350 348 345 342 343 348 352 352 353 353 354 355 357 357 355 353 353 353 352 351 350 350 352 351 351 351 351 351 350 351 351 350 351 350 351 352 352 353 353 354 354 353 353 352 351 352 352 353 352 350 351 352 352 351 351 351 351 351 350 349 348 348 348 347 347 346 347 345 343 345 346 346 347 349 349 348 349 350 351 353 351 352 351 350 352 352 352 350 349 349
355 357 357 357 357 358 356 350 347 344 342 344 348 351 351 353 354 354 354 354 352 351 351 351 352 353 353 352 351 350 349 349 350 351 351 350 350 350 350 350 350 351 351 352 353 353 354 354 353 353 353 352 352 353 353 352 351 352 352 352 351 351 351 351 351 350 350 349 348 348 348 348 348 348 346 342 343 344 346 348 348 347 348 351 351 351 352 352 352 351 351 352 352 352 351 350 350
356 356 355 354 353 354 353 349 346 343 343 343 345 349 351 354 355 353 354 353 348 348 350 350 352 355 354 352 350 348 349 349 350 351 351 350 350 350 350 350 350 350 351 352 352 353 353 354 354 354 354 353 353 353 353 352 352 352 352 352 351 351 350 351 351 350 350 349 348 347 348 349 350 350 347 343 344 344 345 345 346 348 350 351 350 350 351 352 352 351 351 352 351 352 352 352 351
357 357 354 351 350 349 348 347 345 344 343 341 343 348 350 352 353 353 354 352 349 348 350 351 352 353 352 351 350 350 349 350 352 352 351 351 351 350 350 350 350 350 351 351 352 352 353 354 354 354 354 353 353 353 353 353 352 352 352 352 352 350 350 351 351 350 349 348 348 347 347 348 349 350 348 344 345 346 346 345 346 349 350 349 350 350 350 350 351 351 351 352 352 352 352 352 352
353 355 353 350 348 346 345 344 344 345 342 340 341 344 346 350 352 352 353 351 350 350 351 352 353 352 352 351 350 350 349 350 353 352 351 351 351 350 350 350 350 351 351 351 351 352 353 353 354 354 354 354 353 354 354 354 353 352 352 352 352 351 351 351 350 350 350 349 349 348 348 348 348 349 347 344 345 347 347 347 347 349 349 349 349 351 350 350 351 351 352 353 353 352 352 352 351
344 347 347 346 344 341 341 340 340 340 338 338 338 339 343 349 351 351 351 351 350 352 353 353 353 353 352 351 350 351 350 351 353 353 352 352 351 350 350 350 350 351 350 351 351 352 352 353 353 353 353 354 354 354 354 354 354 353 353 352 353 353 351 351 351 352 352 351 351 350 350 348 347 347 345 343 345 348 348 348 348 348 349 350 349 350 350 350 350 351 351 353 353 352 352 351 350
339 339 338 337 335 333 332 333 333 331 331 332 335 338 345 350 350 351 351 351 351 353 354 353 353 353 352 351 351 351 352 352 353 352 353 352 352 351 350 351 350 351 351 351 351 351 352 353 352 353 353 353 353 354 354 353 354 353 353 352 353 353 352 351 352 352 352 352 352 351 351 349 348 346 342 341 344 347 348 349 348 349 350 350 349 350 350 349 350 350 349 350 351 351 352 351 347
336 334 333 333 332 332 330 328 328 326 327 331 334 334 342 351 349 350 352 350 352 353 355 354 354 354 353 353 351 351 352 353 353 353 354 353 352 352 351 351 351 351 351 351 352 351 352 352 352 353 353 353 353 353 353 353 353 353 353 352 352 353 352 352 352 352 352 352 351 349 348 347 346 344 342 341 343 345 348 348 349 349 350 350 350 349 350 350 351 351 351 351 352 352 353 351 345
333 332 331 331 330 331 330 328 326 326 329 334 333 324 331 350 348 349 353 351 353 354 356 355 354 355 353 353 352 351 353 352 353 352 354 353 353 353 352 352 352 352 352 351 352 351 352 352 352 352 352 353 353 352 352 352 352 352 352 352 352 352 352 352 352 352 352 351 349 345 344 343 343 343 343 342 342 344 347 349 349 350 350 350 350 349 350 351 351 352 353 353 353 354 352 348 342
330 330 330 329 325 326 328 326 325 327 330 335 333 320 326 344 346 350 353 351 354 354 356 355 354 355 353 354 352 352 352 352 354 353 353 353 353 353 353 353 352 352 353 352 352 352 352 352 351 351 351 352 352 351 351 351 351 351 352 352 352 352 352 352 352 352 352 349 346 342 342 343 343 343 343 344 345 346 348 350 350 350 350 350 349 350 350 352 353 353 353 353 354 354 350 345 340
328 326 325 327 322 325 330 326 325 329 331 336 332 321 327 338 342 351 353 351 355 354 356 355 354 355 354 354 353 352 352 353 354 354 353 353 353 353 353 353 352 353 353 353 353 352 352 352 352 351 351 351 351 351 351 351 351 351 352 351 351 352 352 352 352 352 351 346 342 341 342 342 342 343 343 345 346 347 349 350 351 350 351 350 350 350 350 353 354 354 354 353 353 353 349 343 341
323 323 321 324 322 324 328 325 325 327 331 336 332 326 330 337 341 350 353 352 354 355 357 356 355 355 354 354 353 353 352 352 354 354 354 353 353 353 354 354 352 352 353 352 353 353 352 352 352 352 351 352 351 351 351 351 351 351 351 351 351 351 351 351 352 351 348 343 341 342 342 342 342 343 343 346 347 348 349 350 350 351 351 350 350 350 351 353 354 354 355 353 353 352 348 343 342
317 322 321 323 325 323 325 326 326 328 332 335 335 333 332 338 345 351 353 352 353 355 357 356 355 355 355 354 353 353 353 352 352 354 354 353 353 353 354 354 353 352 352 352 352 352 352 352 352 352 352 352 351 351 352 351 351 350 350 350 350 351 351 352 351 348 344 342 342 342 342 342 342 343 344 346 348 349 349 349 350 351 351 351 350 350 352 353 353 354 355 353 351 351 347 343 342
315 318 320 321 322 322 322 325 324 326 330 331 334 335 335 341 348 351 353 352 353 355 356 356 356 355 355 355 354 354 354 353 353 354 354 353 354 354 354 355 354 353 353 352 353 352 353 353 353 352 352 352 351 352 352 351 351 350 350 350 351 351 351 351 351 347 343 342 342 341 342 343 343 343 345 347 350 351 351 350 349 350 351 351 350 351 353 353 353 354 354 353 351 348 345 342 341
319 320 322 322 321 323 324 325 323 323 325 327 329 332 333 339 348 352 352 353 353 355 356 355 356 355 355 355 354 355 354 353 354 355 355 354 354 355 354 355 354 354 353 353 353 353 353 353 353 353 352 352 352 352 352 351 351 351 351 351 351 351 351 351 351 348 344 343 342 342 343 343 345 345 346 350 352 352 353 351 350 350 351 351 351 352 353 353 353 354 353 352 351 347 344 341 340
325 325 324 324 323 324 326 325 323 322 323 324 329 331 331 335 346 353 351 353 355 354 357 356 356 356 355 355 355 355 355 354 355 356 355 355 355 355 355 355 354 354 354 353 353 353 353 353 353 353 353 352 352 352 352 352 352 352 352 352 352 352 352 352 352 350 347 345 343 342 344 345 348 348 350 352 352 352 353 352 351 351 350 351 351 352 353 353 353 353 353 352 350 348 345 342 340
326 324 323 323 322 323 326 326 324 324 323 325 330 329 329 331 341 351 352 353 354 353 356 356 355 355 355 356 355 355 355 353 354 355 355 355 355 355 355 355 355 354 354 353 353 353 353 354 353 354 353 352 352 351 351 352 353 352 352 352 352 353 353 353 354 352 350 347 343 343 345 348 350 351 351 352 352 352 352 352 352 351 351 351 352 352 353 353 353 354 354 352 349 348 346 343 339
322 322 320 319 322 325 326 326 325 325 323 324 329 326 326 329 336 348 353 353 354 352 353 354 355 356 355 355 355 355 354 354 353 353 355 356 355 355 355 355 355 355 355 354 354 354 354 354 354 354 353 352 352 350 350 352 352 352 352 353 353 354 354 353 353 353 351 347 343 344 347 350 352 352 352 352 352 352 352 352 352 351 352 352 352 353 353 354 354 353 354 352 349 347 345 342 338
322 321 317 315 321 324 322 323 322 323 322 323 327 324 325 332 338 347 352 352 354 352 352 353 354 355 355 354 354 354 355 354 354 352 353 355 355 355 355 355 355 355 355 355 355 355 355 354 354 355 354 352 352 350 350 351 351 351 352 353 353 353 354 353 351 352 353 349 344 345 347 351 352 352 352 352 352 352 352 352 352 352 352 352 353 353 354 356 354 353 354 352 349 347 346 343 339
322 323 318 316 321 322 322 323 323 324 323 323 324 319 321 330 337 344 350 352 354 353 352 353 353 354 354 353 354 353 354 354 354 353 352 354 355 356 355 356 356 356 356 355 356 355 355 355 355 354 354 353 351 350 351 352 351 351 352 354 353 352 354 354 353 354 355 353 349 348 349 351 352 351 352 352 352 352 352 353 352 352 352 353 353 353 355 357 354 354 354 351 348 347 346 345 342
320 323 323 321 323 324 323 323 322 320 320 324 324 315 317 331 337 342 351 354 355 354 354 354 353 354 353 354 354 353 353 353 353 353 352 353 355 356 356 356 356 356 356 356 356 356 356 356 356 355 355 354 352 352 353 352 352 353 353 354 353 353 354 355 355 355 356 354 353 352 351 351 352 352 352 351 352 352 352 353 353 352 353 352 353 354 356 357 354 354 354 350 348 346 346 345 343
316 321 324 324 325 324 323 322 320 316 317 324 325 317 316 324 330 339 350 354 356 355 355 354 353 354 353 353 353 352 352 352 352 353 352 353 355 356 356 357 356 357 357 357 357 357 356 356 356 356 355 355 354 354 353 352 353 353 353 354 354 354 355 356 355 356 356 353 350 351 351 351 352 351 352 352 352 352 352 353 353 353 353 353 353 354 356 357 354 354 353 350 347 345 344 344 342
316 322 324 323 324 324 324 323 320 319 320 323 324 321 316 316 323 337 348 351 357 357 356 355 353 354 353 352 353 352 352 352 352 352 352 352 354 356 356 357 356 356 356 357 357 357 357 357 356 355 355 355 355 354 354 354 354 353 354 355 355 355 355 356 356 354 354 351 348 350 351 351 352 352 352 352 353 353 353 353 353 353 353 353 354 355 356 356 354 353 353 349 345 343 342 341 341
320 323 324 323 324 324 324 323 320 320 319 316 319 320 316 314 322 338 345 345 351 357 357 356 354 354 353 352 352 351 352 352 351 351 351 352 354 355 356 356 356 356 356 357 357 357 357 357 356 355 355 355 355 354 354 355 354 352 354 355 355 355 355 355 355 353 352 351 350 350 351 351 352 352 353 353 353 353 353 353 354 354 352 353 355 356 356 356 354 353 353 349 344 342 340 338 340
321 321 323 323 323 324 323 322 319 318 316 314 316 316 316 315 317 329 338 337 342 351 355 355 355 354 353 352 351 351 351 351 351 351 351 352 354 354 354 355 355 356 356 356 357 357 357 357 357 356 356 356 355 354 354 354 354 353 353 354 354 355 354 355 355 354 353 352 352 352 351 351 352 352 352 353 353 354 354 354 354 354 353 353 355 356 356 356 354 353 353 350 344 342 340 336 338
321 322 322 321 322 323 322 322 318 316 316 315 316 315 316 315 315 322 333 336 340 345 350 354 355 354 353 352 351 351 351 351 351 351 351 352 354 354 353 354 355 355 355 356 356 357 357 357 357 357 357 356 356 355 354 354 355 354 353 352 352 354 354 355 355 355 355 353 354 354 353 352 352 352 353 353 353 354 354 354 354 354 353 353 355 357 356 355 354 354 354 351 345 342 340 337 337
321 323 321 318 319 319 317 318 317 316 315 315 316 317 314 313 316 323 331 337 340 340 342 349 353 354 353 353 351 351 351 351 351 351 351 352 353 353 353 353 354 354 355 355 355 356 356 357 357 357 357 357 356 356 355 355 356 355 354 352 352 353 354 354 354 355 355 354 355 355 354 353 353 353 353 353 353 353 354 354 354 354 355 356 357 357 357 354 354 355 354 352 347 342 341 338 337
322 321 318 315 316 315 315 315 315 314 314 314 315 316 313 313 319 326 330 335 337 339 339 342 348 352 353 353 352 351 351 350 350 351 351 352 352 352 353 353 354 354 354 354 354 355 356 356 357 357 357 357 356 356 355 356 356 356 355 353 352 353 353 353 353 354 354 354 354 356 355 354 354 354 354 354 353 353 353 353 354 355 357 357 357 357 356 354 355 355 354 354 349 343 341 339 337
320 318 315 314 314 315 314 315 314 313 312 313 315 315 313 313 319 326 328 330 335 338 339 340 344 350 353 353 351 350 351 350 350 351 351 352 352 352 353 354 354 354 353 353 353 354 355 356 356 357 357 357 356 356 356 356 356 355 354 354 353 353 352 352 353 353 354 353 353 354 354 353 354 353 352 352 351 352 353 353 354 355 356 357 356 356 355 353 355 355 355 355 351 344 342 341 339
320 321 319 315 314 314 313 313 312 311 311 313 314 314 311 311 320 329 327 326 331 335 338 340 342 347 350 351 351 350 350 350 350 351 351 352 352 353 354 353 353 354 353 352 353 354 355 356 356 356 357 357 356 356 356 356 356 355 354 354 354 353 352 352 353 352 353 352 351 352 353 353 353 352 351 350 349 350 351 353 353 353 355 357 357 356 354 353 355 356 355 355 352 346 343 343 341
321 323 320 316 317 315 312 313 313 311 311 313 313 313 315 319 326 331 328 327 329 331 336 339 340 343 344 347 349 349 349 349 350 350 351 351 352 354 354 353 353 353 352 352 352 353 354 355 355 355 356 357 356 355 356 356 356 355 355 354 354 354 353 353 353 351 351 351 351 351 352 351 352 351 350 350 349 349 350 352 353 353 355 357 357 356 354 352 354 355 356 356 354 348 344 343 343
319 319 316 318 322 319 312 313 316 313 311 314 314 312 316 320 324 327 328 329 329 330 333 335 338 342 343 344 346 347 348 349 349 350 351 351 352 353 353 352 352 352 352 352 352 352 353 354 355 355 356 357 356 355 356 356 356 356 355 354 355 355 354 354 354 352 352 352 352 351 351 351 351 351 351 351 351 351 350 351 352 352 355 356 356 356 354 353 353 355 356 356 354 350 344 342 343
319 316 317 321 322 321 317 314 315 313 311 314 313 311 312 312 317 327 332 330 330 330 331 333 337 341 341 342 344 345 346 348 349 350 351 351 351 351 352 352 351 351 351 352 351 351 351 353 354 355 355 356 356 355 356 356 356 356 356 355 355 355 355 355 355 354 352 353 353 352 352 352 351 351 351 351 351 352 351 352 352 352 354 354 355 355 354 353 353 355 355 356 355 351 345 342 342
320 319 322 321 316 317 319 316 314 313 312 314 313 312 312 310 314 324 330 332 332 332 333 334 335 338 340 340 342 345 345 346 348 349 350 350 349 351 352 351 350 350 351 351 351 351 351 352 353 354 355 355 355 355 356 356 356 356 356 356 355 355 356 356 356 355 354 354 354 353 353 352 351 351 352 351 352 352 352 352 352 352 353 353 354 355 355 353 353 354 355 355 355 352 346 343 343
319 320 322 321 317 317 319 317 314 313 313 313 313 312 312 314 319 322 326 333 335 334 335 336 335 337 340 340 340 342 344 345 346 346 348 349 347 349 351 350 350 349 350 351 350 350 351 351 353 354 354 355 355 356 356 356 356 356 357 356 356 356 356 356 356 356 355 354 354 353 353 353 352 352 352 351 351 352 352 352 352 353 353 352 353 356 355 353 353 354 355 355 354 352 347 344 344
318 316 316 317 317 317 318 316 314 313 313 314 314 312 311 318 327 325 325 331 335 337 338 337 336 336 337 340 341 343 344 344 345 344 345 346 346 348 349 349 350 349 349 349 349 350 350 350 352 353 354 355 355 355 356 356 356 356 357 357 356 356 356 356 356 356 356 355 354 354 353 353 352 352 352 352 352 352 351 352 352 353 353 351 351 354 354 353 353 353 354 355 354 353 349 345 344
320 317 316 316 316 315 314 315 314 312 312 313 314 312 312 320 331 329 327 329 332 338 340 337 337 336 337 340 340 344 346 343 343 343 343 344 345 346 348 349 349 349 348 348 348 349 349 349 351 352 353 354 354 355 355 355 355 356 357 356 356 357 356 356 357 356 356 356 355 354 353 353 353 352 352 352 352 352 351 352 353 352 352 349 348 351 352 353 353 353 354 354 354 353 350 346 345
Wind_Speed
12 12 11 9 8 7 5 2 1 1 1 1 0 1 2 1 2 3 4 5 4 6 4 7 10 7 3 3 6 7 5 2 1 1 3 5 15 20 15 20 22 19 18 16 19 23 22 22 21 23 24 24 25 25 24 23 23 21 20 20 20 21 21 20 20 20 19 19 19 18 18 18 17 17 17 16 16 15 14 13 13 12 12 12 12 12 11 11 11 11 11 11 11 10 9 9 8
12 10 10 8 7 5 1 2 1 0 2 1 2 2 2 2 3 2 5 6 4 7 6 9 10 7 6 7 9 6 6 5 2 2 4 12 19 16 16 22 22 20 19 18 20 22 21 21 21 22 24 24 24 24 24 23 23 22 21 21 21 21 21 21 20 20 20 19 19 18 18 17 17 16 16 16 15 14 13 13 13 12 12 11 11 11 11 11 11 11 11 10 10 9 9 8 8
12 10 10 8 5 3 2 1 1 1 1 3 3 2 2 2 2 3 5 5 7 10 10 12 9 7 5 7 5 2 4 3 4 6 7 16 17 14 18 21 22 21 20 20 20 21 22 22 22 23 24 24 24 25 25 24 24 22 21 21 22 22 22 21 20 20 20 19 19 18 17 16 16 15 15 15 14 13 13 12 12 11 11 11 11 11 11 11 11 11 10 10 9 8 8 8 8
11 10 10 7 2 2 2 0 1 1 2 3 3 3 2 3 5 6 7 8 11 11 11 11 7 3 1 5 4 3 5 4 7 9 10 14 14 18 21 21 22 20 21 21 20 21 22 23 24 23 24 24 25 25 24 23 23 22 21 22 22 22 22 21 20 20 20 19 18 17 16 15 15 14 14 13 13 12 12 12 11 11 11 11 11 11 11 11 11 11 10 10 9 8 7 7 7
11 9 8 4 1 0 1 1 0 1 2 2 2 3 3 5 8 8 9 10 11 10 10 8 5 4 5 6 2 1 5 6 9 10 12 13 14 21 21 21 21 20 22 21 21 21 23 25 24 25 25 25 26 26 25 24 22 22 22 22 23 22 22 21 20 20 19 18 17 16 15 15 14 13 13 12 12 12 11 11 10 10 10 11 11 11 11 11 11 11 10 10 9 9 7 7 7
11 9 5 2 1 0 1 0 0 2 2 1 1 3 5 7 10 11 11 11 9 8 8 6 6 7 6 5 3 3 5 6 9 11 14 15 18 21 21 22 20 21 22 22 23 21 22 24 24 24 25 25 26 26 26 24 23 22 22 22 22 22 21 21 20 19 18 17 16 15 15 14 13 12 11 11 11 11 10 10 10 10 10 11 11 11 11 11 10 10 10 10 10 9 8 8 7
11 7 3 3 1 1 2 1 1 2 1 2 1 2 7 9 11 13 12 10 8 6 5 6 8 8 5 3 4 5 3 4 9 12 15 17 21 21 21 21 20 22 21 22 24 22 22 23 22 22 22 23 24 24 24 23 23 22 22 21 21 21 20 20 19 18 17 16 15 14 13 13 12 11 10 10 10 10 9 9 9 10 10 10 10 11 11 10 10 10 10 9 10 9 9 9 8
8 3 1 2 1 1 1 1 2 1 0 2 2 1 8 12 12 12 11 8 7 7 7 9 9 6 5 3 4 4 4 5 9 13 17 20 23 22 21 21 20 21 20 21 22 23 25 24 22 22 21 22 23 24 24 24 23 22 21 21 21 20 20 19 18 17 16 15 14 13 12 12 11 10 10 9 9 8 8 8 9 9 10 10 10 10 10 10 9 9 9 9 9 9 9 9 9
4 1 1 1 2 1 2 1 1 2 3 3 3 3 9 11 11 11 10 7 7 9 9 9 6 4 6 5 5 5 5 8 12 15 19 22 23 22 21 20 21 22 21 21 21 23 26 26 25 24 24 24 25 25 24 23 22 21 21 21 21 19 18 17 16 16 15 14 13 12 11 10 10 9 9 8 8 8 7 8 8 9 9 10 10 10 9 9 9 9 8 8 8 8 8 8 9
3 1 0 1 2 2 1 0 1 1 3 3 4 7 10 10 10 10 9 8 9 9 9 6 4 7 9 7 5 4 7 12 15 17 20 23 23 22 21 20 21 22 21 21 21 22 23 25 25 25 26 25 24 24 23 22 21 21 21 21 20 18 17 16 15 14 13 12 11 11 10 9 9 8 8 7 7 7 7 7 7 8 9 9 9 9 9 9 9 8 8 7 7 7 8 8 8
2 1 0 1 1 2 2 2 3 1 2 2 4 8 10 10 10 8 8 9 9 9 9 6 7 11 10 7 4 5 10 14 18 20 22 22 21 21 20 20 20 21 21 21 20 20 21 22 24 24 24 24 23 22 22 21 20 20 20 20 18 17 16 15 14 13 12 11 10 10 9 8 8 7 7 6 6 6 7 7 7 8 8 8 8 8 8 8 8 8 7 7 7 7 7 7 7
2 2 1 2 1 2 2 4 4 3 1 3 6 8 8 10 10 8 9 9 9 9 9 7 8 10 9 6 4 7 12 14 19 22 23 22 20 20 19 19 20 20 20 21 20 19 21 21 22 23 22 22 22 21 21 20 19 19 19 19 18 17 15 14 13 12 12 10 10 9 8 7 7 6 6 5 5 6 6 6 7 7 7 7 7 7 7 7 7 7 6 6 6 5 6 6 7
2 1 1 2 1 2 4 4 4 2 2 4 5 8 8 10 9 9 10 9 10 9 8 8 10 9 7 7 6 9 12 16 20 22 23 21 20 20 19 19 19 19 19 21 20 19 20 21 21 22 22 21 21 20 20 19 18 18 18 18 17 16 15 14 13 12 11 9 9 8 7 7 6 5 5 5 4 5 5 6 6 6 6 6 6 6 6 6 6 6 6 5 5 5 5 5 5
2 0 1 2 1 3 4 3 2 2 2 3 5 9 10 7 7 9 10 10 10 7 7 10 12 8 7 8 7 8 12 18 22 23 23 21 21 20 19 19 19 19 19 20 20 19 19 19 19 21 21 20 20 20 19 18 18 17 17 16 16 15 14 13 12 11 10 9 8 7 7 6 5 5 4 4 4 4 4 5 5 5 5 5 5 6 6 5 5 5 5 4 4 4 4 4 4
2 0 2 2 2 2 2 1 2 3 1 4 7 10 10 4 6 10 9 10 7 6 10 10 9 5 8 10 8 11 16 22 24 23 23 21 20 19 19 19 19 19 20 20 20 20 19 18 19 19 20 20 19 19 19 17 17 17 16 16 15 14 13 12 11 10 9 8 8 7 6 5 5 4 3 3 3 3 3 4 4 4 4 4 5 5 6 5 5 5 5 4 3 3 4 4 4
3 1 2 2 2 1 1 1 1 2 0 3 7 10 9 4 7 8 4 6 7 9 9 8 8 2 7 10 9 18 23 25 25 24 23 21 20 19 19 19 18 19 20 20 20 21 19 18 18 18 19 20 19 19 18 17 17 17 16 15 14 13 12 11 10 9 9 8 7 7 6 5 4 3 3 3 2 2 2 3 3 3 3 4 4 5 5 5 5 5 4 4 3 2 3 3 3
3 2 2 2 2 1 1 2 0 0 1 3 9 11 9 5 6 4 5 6 9 11 7 6 6 1 5 9 14 25 26 26 26 25 24 22 21 20 19 19 19 20 21 20 21 21 20 19 19 18 19 19 19 19 18 17 17 16 15 14 13 12 11 10 10 9 8 7 7 7 6 5 4 4 3 2 2 2 1 2 3 3 3 3 4 4 4 4 4 4 4 3 2 2 2 2 2
4 3 3 3 3 2 1 2 1 2 2 5 10 12 10 8 8 6 6 5 8 10 5 5 5 3 8 14 22 28 27 27 27 26 25 22 21 20 19 20 20 20 21 21 21 22 21 20 20 19 19 19 18 18 18 17 16 16 14 13 12 11 11 10 9 9 8 7 7 7 6 5 4 4 3 3 2 2 1 1 2 2 2 3 4 3 3 4 4 4 4 3 2 1 2 3 3
5 3 3 4 3 1 2 3 3 3 4 2 10 13 11 10 10 8 7 6 9 10 6 7 6 8 13 19 25 27 27 28 27 27 25 24 23 22 21 21 21 21 20 20 21 22 22 21 21 19 19 20 19 18 18 17 16 15 14 13 12 11 11 10 9 9 8 8 7 6 6 5 4 4 3 3 2 2 1 0 1 1 2 2 3 3 3 3 3 3 3 3 2 1 2 4 4
6 4 5 5 5 5 5 6 7 6 7 5 10 12 10 10 11 8 8 9 11 11 9 10 10 12 15 20 25 27 28 27 26 26 26 25 23 23 22 22 23 23 21 20 20 20 21 22 21 20 20 21 20 18 18 17 17 15 14 14 13 12 11 10 9 9 9 8 7 7 6 6 5 4 4 4 3 2 2 1 0 1 1 2 3 3 4 3 3 3 3 3 3 3 3 3 4
5 6 7 3 3 6 6 6 6 7 8 6 7 10 10 10 9 9 10 9 9 12 13 14 15 17 19 21 25 27 27 26 27 26 26 26 24 23 23 22 23 22 21 20 20 20 21 21 21 21 21 22 20 18 17 17 17 16 14 14 13 12 12 11 10 10 9 9 8 7 7 6 5 5 5 5 4 3 3 2 1 1 1 2 3 4 5 4 4 4 4 4 4 4 4 4 5
5 9 10 6 4 7 6 3 4 5 6 3 8 10 9 9 9 11 14 11 8 9 14 14 15 19 22 24 25 25 25 25 26 26 27 27 26 25 23 23 22 22 22 21 20 20 20 20 21 21 22 21 20 19 17 17 17 16 15 15 14 13 12 11 11 11 10 10 9 8 7 7 6 6 6 6 6 5 4 3 2 2 2 3 4 5 5 5 5 5 5 5 5 5 5 5 6
6 8 10 10 10 11 8 4 6 6 4 4 7 8 8 10 10 11 16 14 3 4 12 13 13 18 22 24 24 24 24 24 25 27 28 28 28 27 25 25 24 23 23 22 22 20 19 19 20 21 21 21 21 19 17 17 18 17 16 15 15 14 13 13 12 11 11 10 10 9 8 8 7 7 7 7 6 5 5 4 3 3 3 3 4 5 6 6 5 5 6 6 6 6 6 6 6
10 8 8 9 10 13 11 9 10 9 8 7 5 7 11 14 11 10 17 14 4 5 12 15 14 17 20 22 22 22 24 24 25 27 28 28 29 28 26 25 24 23 23 22 22 21 20 19 19 19 19 20 20 19 18 18 18 17 16 16 16 15 14 13 13 12 11 11 10 10 9 8 8 7 8 8 7 6 5 5 4 4 4 4 5 5 6 6 6 6 6 6 6 6 6 6 7
14 11 8 8 10 13 13 12 13 11 10 8 6 10 14 17 11 10 17 13 7 8 12 17 17 18 18 20 21 21 21 23 24 26 26 25 26 26 25 24 24 24 24 24 23 22 22 20 19 19 19 20 19 19 18 18 18 18 18 17 16 16 16 14 14 13 12 12 11 11 10 9 9 8 8 8 7 7 6 6 6 6 6 6 6 6 7 6 6 6 6 6 6 6 6 7 8
11 13 10 10 12 13 13 13 13 10 8 6 9 14 16 14 9 9 15 12 10 12 14 17 18 19 18 18 20 20 20 22 23 24 25 24 25 26 25 24 24 25 25 24 23 23 23 21 21 20 19 19 18 17 17 17 17 17 17 17 16 16 16 15 14 13 13 12 12 11 11 10 9 9 9 9 8 7 7 7 7 7 7 7 7 7 8 7 6 6 5 5 5 6 7 8 8
5 10 12 13 14 14 13 14 13 9 8 9 12 15 13 11 9 10 9 13 14 14 15 17 18 19 19 18 19 19 19 22 24 24 23 23 25 27 27 26 26 25 25 25 24 24 23 22 22 22 20 19 18 17 17 16 16 16 16 15 15 14 16 15 13 13 12 12 11 10 9 10 9 10 11 10 9 8 8 8 8 8 8 8 7 8 9 8 7 7 6 5 5 6 7 7 7
6 7 10 12 12 12 12 14 11 6 7 11 14 11 6 10 11 11 9 16 16 16 17 17 18 17 18 19 18 17 17 21 24 24 24 25 26 27 28 28 27 26 26 27 25 23 23 23 23 22 21 19 19 18 17 16 16 16 15 15 14 13 14 14 12 13 12 11 10 9 9 9 10 11 12 11 10 9 8 8 8 9 9 9 9 9 9 8 8 7 7 7 7 7 7 6 5
10 8 11 11 10 12 11 11 8 6 6 8 11 6 5 11 13 9 13 16 16 17 16 17 17 15 16 17 16 15 17 21 24 23 25 25 24 26 28 27 27 26 25 26 25 24 24 24 24 23 21 20 20 20 18 17 17 15 15 15 14 13 13 13 13 13 12 10 10 11 12 12 12 12 12 12 10 10 9 10 10 10 10 10 10 9 8 8 8 7 7 7 7 6 6 5 4
8 7 7 8 8 9 5 4 4 6 4 8 10 6 6 14 14 12 16 17 18 17 16 16 15 14 15 15 15 16 17 20 22 24 25 25 24 24 25 25 26 25 23 24 25 26 25 24 25 24 22 22 21 21 20 18 17 16 16 15 14 14 13 13 13 12 11 11 12 14 15 15 14 14 13 12 11 11 11 11 11 10 10 10 10 8 7 8 7 6 5 6 6 5 5 4 3
4 4 4 4 5 4 1 2 2 4 4 10 10 8 8 9 13 14 15 19 20 17 17 16 15 14 14 15 15 16 17 20 23 24 25 25 24 22 22 23 25 24 22 24 27 27 26 25 25 25 24 24 23 22 20 19 17 16 16 15 14 13 13 13 13 12 12 13 15 17 17 16 16 15 14 13 12 12 12 12 11 10 9 9 9 8 7 7 7 5 5 5 5 5 5 3 2
2 3 5 4 4 5 2 0 5 7 3 9 10 7 7 3 10 16 16 18 20 17 17 17 16 16 15 14 15 15 16 20 23 24 25 25 24 22 22 23 25 25 23 24 25 26 26 24 24 24 24 25 24 22 20 18 17 16 15 15 14 13 13 13 13 13 14 17 19 18 18 17 16 15 14 14 13 13 13 13 12 10 9 9 9 8 8 7 6 6 5 5 5 5 4 2 3
3 4 6 3 5 5 4 0 3 5 2 7 10 8 7 2 5 13 15 18 19 16 16 18 17 17 16 14 14 14 15 18 21 23 26 25 25 23 22 23 25 25 24 24 26 27 26 25 24 23 23 24 23 21 20 18 17 16 15 15 14 14 14 14 13 14 17 19 20 19 19 18 16 16 15 14 14 14 14 14 12 11 10 10 10 9 8 7 6 5 5 5 5 4 2 2 3
4 4 6 5 5 5 4 2 2 0 2 5 10 11 9 2 4 10 14 17 17 16 16 18 17 16 15 14 14 14 15 16 18 22 26 26 26 25 22 23 24 24 23 25 27 28 28 25 24 23 23 23 22 20 19 18 17 16 16 16 15 15 15 15 15 18 20 21 21 20 19 18 17 17 16 15 15 15 15 15 14 12 10 10 10 9 9 8 7 6 5 6 5 3 1 1 1
7 5 5 5 5 7 8 5 1 2 3 5 7 10 12 6 6 10 13 15 16 16 15 16 16 16 15 14 14 15 16 17 17 22 26 27 26 25 24 23 23 23 22 23 25 26 26 25 24 24 23 24 23 19 18 17 16 16 16 16 16 15 16 16 18 21 22 22 22 21 20 18 18 17 16 16 15 15 15 15 15 14 12 11 11 10 9 9 9 8 6 6 4 2 2 2 1
9 8 8 7 6 8 8 5 2 4 5 7 9 9 12 9 6 10 12 14 14 12 11 12 13 14 14 14 14 15 17 17 17 22 25 26 26 25 24 23 23 24 23 23 24 24 26 25 24 24 24 25 23 20 18 19 18 18 18 17 17 17 17 17 17 21 23 23 23 21 20 19 18 17 17 16 16 16 16 16 16 15 13 12 12 11 10 9 9 9 7 5 4 2 4 4 3
7 8 8 9 8 9 7 4 3 2 5 7 7 8 11 9 5 10 12 13 13 12 12 12 13 14 14 15 16 16 17 15 16 21 24 24 25 24 23 21 22 25 25 25 26 26 27 27 26 26 26 25 25 23 22 22 21 21 20 19 18 17 17 17 17 20 22 23 23 21 20 19 18 18 17 16 16 16 16 16 16 15 15 14 13 12 11 10 10 9 7 5 4 3 4 4 3
7 7 7 7 9 8 5 5 5 3 5 7 7 10 12 9 6 10 12 14 15 15 15 16 17 16 14 16 18 17 14 12 14 18 22 24 24 24 24 23 25 27 27 28 29 29 28 28 28 28 27 27 28 28 26 24 23 22 20 19 18 17 17 18 16 17 20 22 23 22 20 19 19 18 18 17 17 16 16 17 16 16 15 14 14 13 12 11 10 9 7 5 4 5 4 4 3
9 8 7 8 8 6 5 6 6 5 5 7 8 11 12 8 5 10 14 15 15 17 18 18 18 17 15 17 17 16 14 13 15 17 20 24 25 25 25 25 27 27 28 29 28 28 28 29 29 28 29 30 30 32 31 27 25 23 21 19 18 16 15 17 17 16 18 21 23 21 20 20 19 19 19 18 17 16 17 17 17 16 15 15 14 14 13 10 9 9 8 5 5 6 5 4 4
10 9 9 10 7 5 6 3 1 3 4 6 7 9 9 6 4 8 13 14 13 16 18 16 15 16 16 17 15 15 16 16 17 17 19 22 24 26 26 27 27 27 27 28 28 28 29 30 31 30 31 32 33 35 33 29 26 24 21 19 19 17 15 17 20 18 16 20 23 23 22 21 20 20 19 18 18 17 17 17 17 16 15 15 15 15 13 10 9 9 7 7 7 6 4 4 4
12 12 12 11 7 5 4 1 3 5 5 5 6 8 8 5 7 7 9 11 11 13 16 15 14 15 14 14 13 14 16 16 17 18 18 20 23 25 27 27 27 28 29 29 29 29 29 31 32 32 32 33 37 36 31 27 25 23 20 17 18 18 16 16 19 17 16 20 23 23 23 23 21 21 20 19 19 18 18 17 17 17 16 16 16 16 14 10 9 8 7 8 10 8 5 4 3
10 14 15 11 5 5 3 1 4 6 6 2 1 7 6 3 6 6 5 9 12 12 14 16 14 14 14 14 14 16 16 15 16 17 18 19 22 24 26 27 28 28 29 29 29 29 29 30 32 34 33 34 36 34 29 28 27 25 23 20 19 19 18 17 18 17 17 21 22 21 23 23 22 22 21 20 20 19 19 18 17 17 17 17 17 16 13 10 9 8 8 10 11 10 7 4 3
8 9 11 8 5 6 6 5 4 5 6 1 1 7 6 2 5 6 5 9 12 12 14 16 14 14 15 14 14 15 15 16 16 17 18 18 21 23 25 28 29 29 29 29 28 29 30 30 32 35 35 34 34 30 29 29 28 27 27 25 23 22 20 19 19 19 19 23 24 23 24 24 22 22 22 21 21 20 20 19 18 18 18 18 18 17 14 12 11 10 10 10 10 10 8 6 4
6 5 9 10 9 9 9 7 7 6 6 5 5 7 8 8 7 5 6 9 10 13 15 15 16 16 16 16 16 16 16 16 16 17 18 19 21 25 27 30 32 31 30 28 28 29 31 32 33 36 35 33 33 32 30 29 29 31 30 27 25 25 23 20 20 22 22 25 26 26 26 25 24 23 23 23 22 21 21 20 20 18 19 19 17 16 14 13 13 12 10 10 11 11 9 8 6
4 6 9 9 10 11 9 7 8 6 5 9 10 7 7 11 6 5 6 9 10 14 17 17 18 18 17 18 18 18 17 17 17 18 19 20 22 27 29 30 31 31 29 28 30 30 30 32 34 36 35 33 34 33 31 28 31 35 33 28 27 26 24 21 21 23 24 25 26 26 27 27 26 25 24 24 23 23 22 22 21 20 20 19 15 13 13 13 15 13 12 12 12 12 10 9 7
3 8 8 7 7 6 6 6 5 3 5 11 10 9 7 11 8 5 6 8 11 12 13 16 18 18 18 19 19 19 17 16 17 18 19 20 25 28 29 28 29 30 29 29 29 28 28 29 30 33 35 35 34 35 35 32 32 36 35 33 31 28 25 23 20 21 23 24 25 26 28 28 28 27 26 26 25 24 24 23 23 21 21 19 15 13 13 15 16 14 13 13 13 12 11 10 9
7 8 7 6 5 4 3 3 1 3 9 12 12 11 8 10 9 8 7 7 10 10 9 11 15 17 19 18 19 19 18 16 16 17 18 20 25 27 27 27 29 29 29 28 28 27 26 27 28 31 34 33 33 36 39 37 33 35 38 38 37 32 28 25 22 21 23 25 25 26 28 28 28 28 27 27 27 26 25 25 24 23 22 19 15 13 13 16 17 15 14 13 14 13 11 10 10
9 8 8 6 4 2 3 3 3 8 10 7 10 12 11 12 8 6 10 11 11 11 11 12 14 18 18 18 19 19 19 18 17 17 17 18 20 23 25 28 29 29 28 28 28 28 26 26 28 30 31 31 32 33 37 37 35 36 38 39 39 34 30 29 27 26 26 27 26 25 26 28 27 27 27 27 28 27 27 26 25 23 20 16 14 12 13 17 18 16 15 14 15 15 13 11 11
11 9 9 8 5 4 6 6 5 10 6 3 6 10 11 13 7 3 8 11 11 12 12 12 14 17 18 18 20 18 18 19 18 17 17 17 17 19 23 27 28 28 29 30 31 29 28 28 29 31 31 32 33 33 34 36 35 36 38 39 38 35 33 33 32 30 30 30 28 26 27 28 28 28 29 29 29 29 28 28 25 20 16 14 14 14 15 18 18 17 16 15 16 16 15 13 12
13 10 9 9 7 6 9 7 5 7 4 5 6 6 7 9 6 7 13 13 12 13 13 13 13 15 17 18 19 18 18 19 18 17 17 17 17 18 21 26 27 27 30 32 32 31 29 28 31 32 32 33 35 34 34 35 36 38 40 40 38 36 36 35 33 32 31 32 32 30 30 30 30 31 31 31 31 30 30 29 26 22 17 15 15 15 17 19 19 18 17 16 17 17 16 15 14
12 10 8 9 8 7 6 6 5 5 2 4 7 5 6 4 2 6 13 15 15 14 13 13 12 13 14 15 16 18 19 19 18 17 18 18 18 19 22 25 27 28 31 32 32 31 30 29 33 35 33 34 36 36 34 35 37 39 41 41 38 38 39 37 35 35 34 34 36 34 33 32 32 33 33 33 32 31 31 29 28 27 20 16 15 17 19 21 19 19 18 17 17 18 17 17 16
10 9 9 10 7 5 2 2 4 2 1 3 5 4 5 2 2 3 7 10 12 13 12 12 12 12 11 11 14 16 17 18 18 17 19 19 19 20 22 25 27 29 30 31 31 32 33 32 34 38 37 35 38 38 37 37 38 38 40 42 39 38 39 36 35 38 38 37 37 36 35 36 34 34 34 34 33 32 32 30 30 29 21 16 16 18 21 23 21 20 20 19 19 19 18 18 17
6 8 11 8 6 8 6 2 1 1 5 4 5 7 7 4 6 8 9 9 10 12 12 13 13 11 11 10 12 15 16 17 18 19 19 19 19 19 23 26 27 29 30 32 33 36 38 35 34 37 37 35 38 41 40 38 38 38 40 42 39 37 38 37 36 38 38 35 36 37 36 36 35 35 34 33 33 32 32 31 30 29 23 17 16 18 22 24 22 21 21 20 20 20 19 19 18
7 9 10 7 6 7 7 5 3 5 7 4 6 11 10 6 5 4 9 11 11 12 13 14 13 11 11 12 12 14 16 17 18 19 18 18 18 19 24 28 29 32 33 34 38 40 40 38 36 36 37 37 40 42 41 38 38 38 38 40 40 38 39 37 35 36 37 34 35 36 35 35 36 36 34 33 33 32 32 31 30 30 26 20 18 18 23 26 24 23 22 21 21 21 20 20 19
5 6 10 8 5 8 6 5 6 7 8 4 5 9 9 10 7 2 6 11 12 12 12 13 14 12 11 12 13 15 15 15 16 17 16 17 18 20 25 29 32 34 33 34 38 37 36 37 36 36 38 41 41 38 37 36 37 37 37 39 41 40 38 36 34 35 37 36 35 35 35 36 36 35 34 34 33 32 32 32 31 30 27 23 20 18 23 27 25 24 24 22 23 23 22 22 20
2 5 9 6 4 6 7 5 4 5 7 5 4 6 7 9 9 7 9 9 10 11 10 11 13 13 11 11 12 13 13 13 15 16 17 19 21 23 28 32 33 34 33 33 35 34 34 36 35 35 35 36 36 34 34 37 39 38 36 37 40 41 40 37 35 36 37 37 37 36 36 36 36 36 36 35 34 33 33 32 32 30 28 26 22 19 22 28 27 26 26 24 24 24 24 24 23
6 7 10 7 3 3 5 5 4 5 6 5 5 6 4 3 6 11 14 12 10 10 10 10 11 13 13 11 11 11 12 14 15 15 17 19 20 23 29 32 32 31 31 31 31 32 34 34 34 36 34 33 35 35 36 39 40 37 36 37 39 40 40 39 37 37 37 36 37 38 38 38 37 37 37 36 35 35 35 34 32 31 29 29 27 23 25 29 28 28 27 26 26 26 26 26 25
14 11 10 11 8 5 6 7 6 6 6 4 5 8 5 3 4 9 12 12 11 11 11 10 11 13 13 12 10 9 10 12 14 15 16 17 18 20 24 27 27 26 27 29 30 30 32 33 34 35 34 34 36 36 36 40 40 38 38 38 37 37 39 39 37 35 36 35 36 39 40 39 38 38 38 37 37 37 36 35 34 33 33 33 31 29 30 30 29 29 29 28 28 27 27 27 27
Wind_Direction
147 151 158 160 172 175 170 178 258 168 248 259 291 0 99 139 125 128 145 146 145 148 147 131 137 133 120 115 122 102 57 77 39 13 107 104 138 143 143 143 143 138 133 129 139 144 142 144 145 146 145 145 148 147 144 144 147 147 146 145 146 144 139 136 134 132 130 130 127 122 118 115 112 108 104 101 99 96 94 90 88 86 85 82 80 79 76 74 72 72 70 68 68 69 70 70 73
156 160 163 162 176 184 163 212 279 306 238 106 80 40 86 144 156 148 156 165 150 141 137 131 124 94 83 101 120 116 68 39 29 77 96 127 134 138 145 146 145 140 138 136 140 144 145 147 149 150 147 148 149 148 148 148 149 148 147 149 148 144 141 138 136 134 133 131 127 122 118 116 111 107 103 100 98 95 92 88 85 83 81 80 77 76 74 73 71 70 69 68 66 67 68 68 71
162 158 159 164 174 209 282 223 285 315 41 63 72 80 122 127 111 114 145 152 133 135 130 129 118 89 107 119 115 83 79 62 120 118 124 141 139 145 150 148 146 142 141 141 141 143 147 151 153 152 151 151 152 152 150 150 150 147 149 152 149 145 143 141 138 137 135 131 126 123 119 115 110 106 102 99 97 93 90 86 84 81 80 79 76 73 72 72 70 69 66 65 64 64 64 63 67
160 156 161 171 183 219 280 0 356 313 48 54 66 92 124 88 96 109 124 131 132 137 133 136 120 58 59 117 93 59 99 109 137 131 141 153 146 147 150 149 146 142 143 144 143 142 146 150 152 151 151 153 153 152 149 150 150 148 153 154 151 147 145 142 139 138 134 130 126 123 119 115 110 105 101 98 96 93 89 85 83 81 79 76 73 71 70 71 70 66 63 61 59 57 58 59 61
154 156 162 188 284 113 306 26 67 289 44 53 51 89 120 101 113 114 119 132 139 144 140 142 118 75 57 81 50 71 114 117 144 145 147 152 144 145 149 149 145 143 144 145 144 142 144 147 148 149 150 152 152 153 149 149 149 151 157 155 152 149 145 142 140 137 134 130 127 123 119 115 109 105 102 100 97 92 88 84 82 78 76 74 72 71 70 69 67 64 61 58 56 55 56 56 57
149 157 172 251 294 81 276 234 203 280 341 253 0 86 123 121 126 120 123 131 136 142 136 130 117 120 88 66 40 94 120 123 150 157 152 148 145 147 148 148 145 145 145 145 146 142 145 146 146 148 150 150 151 152 149 147 151 156 158 155 151 147 143 142 140 137 134 131 127 123 119 115 111 108 105 102 96 92 88 84 81 77 74 72 70 70 70 67 64 62 60 56 53 55 56 54 55
154 159 188 245 205 205 262 309 283 283 350 213 264 85 128 131 132 128 131 132 135 135 122 124 124 120 101 102 97 99 111 125 149 156 153 147 147 149 148 149 146 146 146 147 147 145 147 145 144 145 146 147 147 148 147 149 154 158 157 154 151 147 143 142 140 138 135 131 128 125 120 117 114 110 107 102 95 91 87 84 81 76 72 69 68 67 66 64 62 61 59 55 52 50 53 55 55
164 169 196 251 259 218 254 288 267 247 151 211 270 138 137 139 143 139 140 140 144 146 134 139 142 120 107 143 127 115 115 130 148 148 149 148 149 150 150 150 146 148 147 148 148 147 147 144 147 149 148 148 148 150 152 155 157 157 155 153 151 147 144 142 140 137 134 131 129 124 121 119 114 111 108 102 96 92 87 85 79 75 71 67 64 62 62 61 60 59 57 55 53 50 50 51 52
177 242 180 289 303 277 253 258 254 223 244 236 231 160 140 146 150 145 145 140 139 147 145 149 169 144 125 135 119 128 137 138 143 143 148 150 151 152 152 152 149 150 150 150 149 149 149 148 153 155 153 154 154 156 157 157 157 155 153 152 150 147 144 142 140 137 134 132 128 124 122 119 114 111 108 104 98 91 86 82 77 72 68 64 62 60 59 58 56 55 53 51 51 51 50 49 50
179 288 178 319 292 299 274 199 6 215 249 244 190 159 147 150 152 148 145 139 141 141 138 135 135 135 134 133 114 128 146 146 145 146 151 152 154 154 153 155 152 152 152 152 151 153 153 151 156 156 157 159 158 158 157 157 155 153 152 151 149 147 145 141 140 138 136 133 129 126 124 121 115 112 110 106 99 92 84 80 77 71 66 62 60 59 58 56 56 53 49 45 46 48 48 50 49
189 171 231 299 276 312 353 5 340 317 270 224 170 161 153 150 147 145 138 133 144 139 139 140 123 130 130 128 111 123 142 150 152 151 153 154 156 156 153 154 154 153 154 155 154 155 155 153 156 157 159 161 161 160 158 157 154 153 151 151 149 147 145 143 143 140 139 136 132 129 127 125 118 116 113 108 101 92 84 79 76 71 66 62 59 57 56 56 55 53 50 45 41 42 45 48 47
249 163 211 287 292 323 339 326 323 340 207 178 164 164 157 151 149 152 148 139 148 146 155 167 145 137 129 129 127 135 148 154 155 154 154 155 157 158 154 153 156 157 157 158 156 157 159 157 157 157 160 162 163 161 160 159 157 156 154 153 151 149 148 147 146 144 143 140 136 133 133 130 123 121 116 111 104 91 82 78 77 72 68 62 59 55 53 54 53 50 48 48 43 40 44 47 42
257 163 244 294 309 309 307 305 319 334 183 180 168 166 162 161 165 163 153 147 158 160 162 160 150 143 122 126 135 145 157 156 156 156 155 156 158 158 156 157 157 159 161 161 160 161 162 161 160 160 161 163 164 163 162 162 160 159 157 156 154 153 152 151 150 149 147 144 142 139 140 138 131 127 120 114 103 92 83 79 79 73 68 58 52 52 50 48 45 44 43 45 48 47 49 49 42
216 153 286 305 297 290 287 284 305 260 187 167 162 161 168 173 170 159 151 155 163 158 142 146 150 137 121 134 148 162 164 158 157 158 157 156 158 158 158 161 161 162 165 166 165 165 165 164 164 164 163 166 166 166 165 165 164 162 161 159 158 157 156 155 155 155 153 151 148 148 149 146 139 132 122 116 102 95 84 78 80 74 66 51 44 45 43 41 39 35 34 37 44 49 50 50 45
196 11 270 291 282 276 253 256 301 254 183 156 165 158 168 172 159 163 166 160 150 133 127 144 167 145 151 166 171 171 163 160 159 158 158 157 157 158 159 161 164 168 168 169 171 170 170 168 168 169 168 168 168 169 169 168 168 166 164 163 162 161 160 160 161 161 160 160 157 156 157 152 148 140 127 117 107 96 78 70 75 76 61 43 37 35 33 32 31 27 26 30 37 47 46 47 44
199 297 272 290 283 292 193 225 283 234 250 151 162 160 163 144 157 165 159 138 122 146 145 156 187 180 169 177 162 160 160 159 160 158 158 157 157 159 159 163 167 171 172 174 176 176 175 173 173 174 173 171 171 172 171 172 173 171 169 168 167 166 165 166 166 167 166 167 165 166 167 164 161 153 144 134 122 110 83 64 69 70 50 34 27 22 22 18 18 20 21 25 30 44 40 44 42
193 255 266 273 261 284 184 201 271 335 0 158 163 169 167 136 151 130 96 122 132 159 166 154 175 237 167 160 146 152 156 157 159 160 160 159 160 161 163 166 169 174 177 179 181 180 181 179 178 177 177 176 175 175 174 175 176 175 174 173 173 171 171 173 172 172 171 173 175 175 176 174 174 172 164 158 149 140 102 61 63 53 34 26 15 9 13 12 11 12 15 23 32 35 24 30 23
184 212 242 253 244 260 215 218 300 358 16 166 176 180 177 157 154 135 123 131 138 159 168 143 137 88 129 135 143 151 155 158 161 162 163 165 167 167 167 170 174 177 179 182 183 184 185 184 183 181 181 181 179 179 179 179 179 178 179 178 179 178 177 178 178 178 179 180 182 183 185 189 189 189 186 179 174 167 166 70 56 30 22 18 9 5 11 14 9 9 14 21 30 20 11 15 359
192 201 230 241 227 237 230 252 279 315 352 187 191 189 186 172 157 159 168 154 151 167 173 158 135 113 126 138 147 152 157 162 165 167 168 170 172 172 171 172 176 178 180 182 183 185 187 187 187 185 184 185 184 184 186 184 183 183 184 185 183 184 184 184 186 185 187 188 189 191 193 201 201 203 209 208 207 203 213 163 58 5 16 15 6 3 6 11 11 12 15 17 15 5 7 7 359
201 214 233 243 240 258 256 257 267 282 308 270 204 191 191 173 154 170 179 162 173 188 179 172 167 146 144 150 153 156 161 165 167 171 173 174 176 175 174 175 177 179 182 183 184 186 187 188 188 188 189 187 187 187 189 189 188 189 188 190 189 188 190 190 191 192 195 196 196 201 203 209 212 218 226 228 231 224 236 235 286 340 6 12 359 352 352 351 358 0 0 8 5 4 4 353 349
193 212 235 242 226 258 257 256 268 280 294 271 202 184 192 171 159 176 165 160 196 208 193 185 176 160 155 159 159 161 165 167 171 175 176 177 178 178 179 179 179 180 180 182 186 188 189 189 188 191 192 189 189 189 190 190 191 194 192 193 193 193 195 195 197 199 201 203 204 210 212 217 223 230 233 232 232 226 235 254 285 311 349 2 353 352 350 343 349 349 347 358 0 359 353 340 333
210 221 241 248 251 274 273 273 275 293 312 247 182 186 184 162 175 183 172 186 213 207 196 189 174 161 161 163 163 165 168 171 174 177 178 179 179 179 181 180 180 180 181 185 187 189 189 190 190 192 194 192 192 192 192 192 194 197 196 195 196 197 200 200 202 204 205 207 209 216 218 224 230 235 238 236 235 237 246 263 276 276 314 340 346 347 345 339 342 342 341 346 351 351 343 334 327
230 233 241 245 251 265 271 283 278 289 296 204 183 186 165 166 198 192 191 206 189 151 180 176 169 163 160 162 165 168 171 175 177 179 180 180 180 180 181 180 181 182 184 188 187 188 189 190 192 191 193 194 194 194 194 195 198 199 199 198 199 201 203 204 205 206 209 210 213 218 220 227 234 238 241 239 239 243 254 258 257 259 283 314 330 336 334 334 332 330 333 337 340 344 342 336 331
228 244 244 246 249 255 266 276 275 274 259 247 210 183 177 191 204 189 205 213 113 111 165 157 152 157 159 163 171 173 173 176 179 181 182 181 183 182 181 181 181 183 185 189 188 188 189 190 191 190 192 194 195 196 196 198 201 201 202 202 201 203 204 206 208 209 211 213 217 221 223 229 235 240 242 241 241 245 251 249 247 258 275 296 313 325 326 327 325 322 326 334 336 337 341 337 333
224 243 252 258 259 260 267 268 266 263 256 256 226 207 204 202 191 188 210 205 131 126 146 143 145 154 164 170 173 175 175 178 179 180 182 183 184 182 182 183 182 185 187 188 188 190 191 190 190 191 192 193 195 196 199 201 202 203 204 204 204 207 207 208 211 211 213 216 220 222 223 230 234 239 242 241 242 244 247 245 249 262 273 289 307 318 320 319 318 317 319 328 330 329 334 333 330
217 231 247 256 262 267 270 269 263 255 252 235 220 228 223 200 178 212 214 182 137 133 139 143 149 158 169 174 175 178 179 180 180 180 182 182 183 184 185 186 185 188 189 188 189 190 191 190 191 192 192 193 194 195 199 200 201 203 204 205 206 208 209 210 212 213 216 219 222 222 222 228 233 238 241 240 242 246 248 248 255 266 276 290 304 312 313 312 309 309 315 317 322 324 328 329 327
215 225 243 252 261 270 269 271 265 255 253 223 220 239 227 181 183 231 198 155 142 138 147 152 155 163 171 177 179 181 183 183 182 179 180 182 184 187 188 188 189 189 188 188 190 191 190 191 193 193 193 194 195 196 198 199 201 203 203 204 206 208 210 211 212 213 217 219 221 223 221 226 232 237 239 238 241 246 250 254 261 269 280 292 300 307 309 307 302 303 308 307 315 326 330 329 327
254 254 265 261 264 269 260 265 265 246 253 220 216 241 203 162 207 227 156 147 154 147 153 160 163 167 171 177 181 183 187 186 184 183 184 185 185 188 189 189 189 188 189 190 189 189 189 192 193 193 194 194 196 198 198 200 203 204 204 205 206 208 210 211 212 214 218 219 221 222 222 226 231 236 238 237 240 245 250 256 263 269 280 292 296 299 300 297 296 298 303 305 315 328 332 328 324
250 261 277 278 281 278 257 257 249 215 240 199 193 237 182 181 216 198 146 153 158 153 158 164 168 168 170 176 181 185 188 187 189 191 191 189 187 188 190 190 188 186 189 189 188 188 190 191 193 194 195 196 197 199 201 203 204 205 206 206 208 208 209 212 213 216 218 220 222 224 227 229 231 236 239 239 241 245 249 253 262 271 283 296 298 292 288 289 291 293 299 306 316 325 326 319 324
237 240 260 277 287 283 259 244 227 208 216 159 171 261 230 200 206 168 150 160 157 157 164 167 171 170 172 176 181 188 188 190 193 197 196 192 191 190 190 189 187 185 185 187 188 189 190 190 192 194 196 197 198 200 201 203 204 205 206 207 209 209 210 213 215 218 219 220 225 230 232 233 234 237 240 242 245 246 249 254 263 275 288 300 300 288 280 284 285 287 296 307 315 318 316 318 335
231 244 238 254 264 254 106 94 189 209 186 164 184 271 271 202 187 169 158 163 162 164 169 169 174 172 174 178 182 189 190 195 197 198 199 196 195 193 191 188 186 185 183 184 188 188 189 190 192 195 196 198 199 200 201 202 203 203 205 207 209 210 211 214 217 219 221 224 229 233 233 234 236 239 241 244 247 248 250 256 265 276 289 298 297 284 274 278 280 282 297 309 317 314 315 340 11
221 249 231 212 233 248 314 112 222 242 214 182 200 262 280 210 173 175 167 169 168 169 172 171 175 174 176 180 183 189 192 197 200 200 202 200 198 196 194 191 188 189 186 183 185 187 190 191 192 194 196 197 199 200 201 201 203 203 205 207 210 212 213 217 220 220 225 230 232 235 235 234 237 239 241 244 247 248 250 255 264 274 286 291 289 278 270 273 274 280 298 309 318 314 314 29 53
198 228 242 220 228 265 307 112 210 246 195 192 213 253 284 327 165 176 170 175 174 170 174 174 176 176 177 181 184 188 190 196 201 203 203 202 201 199 196 194 192 193 191 188 186 188 190 192 193 194 195 196 198 200 201 203 204 205 207 209 212 214 216 220 222 223 230 234 235 235 235 236 237 239 240 243 246 247 250 255 262 271 281 284 281 273 266 268 273 282 298 308 311 304 290 83 77
195 204 240 248 245 267 270 224 97 208 212 217 224 241 267 302 137 176 177 180 179 176 178 177 177 178 179 182 184 187 190 195 200 201 201 201 202 201 198 196 195 194 194 193 192 192 192 192 194 196 196 196 197 199 201 204 206 208 211 213 216 218 219 221 225 232 235 237 236 236 237 238 239 240 240 241 244 247 251 255 259 268 276 276 274 270 262 266 277 282 295 305 302 282 225 122 97
197 192 220 241 234 242 251 248 25 9 283 261 237 238 256 251 149 175 188 185 188 187 181 178 177 178 180 184 187 188 192 197 199 197 198 200 202 201 200 198 195 194 196 195 194 194 194 193 195 197 198 197 199 200 201 204 206 209 213 215 219 221 223 225 229 236 238 238 238 238 238 240 240 240 239 241 243 247 251 255 258 264 270 270 270 265 261 268 277 282 295 301 291 251 190 171 185
198 203 224 239 234 237 250 261 305 333 301 274 259 250 260 256 177 178 192 189 197 194 180 180 180 181 183 187 191 191 195 200 195 193 194 196 199 200 199 198 196 197 199 197 195 195 195 194 196 198 199 199 199 198 199 202 204 208 211 213 217 220 223 226 230 235 238 239 239 240 240 241 241 240 240 241 244 248 252 257 259 262 266 267 267 263 264 271 276 284 294 290 275 230 196 196 215
189 195 219 234 243 247 254 272 282 319 293 274 270 269 272 269 200 184 191 190 198 195 184 187 186 186 188 191 195 195 198 198 189 191 193 194 197 198 198 197 197 200 202 200 198 198 198 196 196 198 199 199 199 198 198 200 201 204 207 210 213 216 218 222 227 232 236 238 239 239 241 241 240 239 240 242 246 251 253 258 260 261 264 264 265 265 268 275 275 279 284 280 265 223 202 205 209
202 200 215 228 236 245 257 278 281 285 281 276 282 284 281 276 225 189 185 189 199 198 192 193 192 192 192 194 197 198 196 190 186 190 192 194 197 197 198 200 201 201 201 201 200 200 198 197 198 198 199 200 202 202 200 200 201 202 203 206 209 212 215 217 221 228 233 236 238 238 240 240 239 238 240 243 247 251 254 259 260 261 264 264 265 266 269 271 268 270 276 274 246 215 205 203 197
222 222 228 238 235 247 265 264 266 257 261 276 285 284 282 284 244 196 189 193 200 201 198 197 194 192 194 196 196 194 190 186 189 191 191 195 197 196 199 203 204 203 202 202 200 199 198 199 201 199 200 201 203 206 205 203 203 203 203 204 205 208 212 216 220 226 231 235 237 237 238 238 237 238 239 242 246 250 255 259 261 263 264 263 263 264 267 265 257 262 267 258 227 212 207 194 192
223 222 222 236 221 215 248 233 207 231 238 275 295 290 281 279 247 208 202 203 203 203 203 202 197 196 199 198 195 191 190 189 189 191 193 196 197 197 199 202 203 204 204 203 200 198 198 200 201 200 202 204 206 208 207 206 206 207 208 208 209 212 217 223 227 229 230 236 239 238 237 236 236 237 238 241 245 250 256 259 261 262 263 263 262 262 263 258 253 256 257 244 224 218 220 200 196
219 221 223 234 214 191 238 281 328 282 246 250 283 291 278 245 236 227 204 205 211 206 204 205 202 202 203 199 197 196 196 194 191 192 194 195 197 197 197 199 201 203 205 205 201 199 199 201 200 201 203 205 208 209 206 203 204 205 206 208 214 219 222 225 226 225 225 233 237 237 237 235 235 237 238 240 244 251 257 258 258 260 261 262 261 261 261 256 253 251 250 242 229 231 245 224 200
220 222 223 229 203 170 190 234 299 283 261 231 255 279 271 206 236 242 182 197 213 208 206 210 206 204 204 200 200 200 200 199 196 196 195 195 198 198 198 199 200 203 206 205 202 200 201 201 201 202 203 205 208 207 203 202 202 201 200 200 206 210 214 216 216 215 216 224 229 232 236 235 234 237 238 241 245 250 255 256 256 258 260 261 261 261 259 254 251 247 250 244 231 235 244 233 206
230 210 204 205 184 181 196 211 246 264 271 292 147 264 273 263 246 234 186 202 213 211 211 212 210 207 205 205 204 201 199 200 199 199 198 197 197 197 199 199 200 204 205 203 203 203 203 203 202 204 205 206 207 204 202 203 202 202 201 201 201 203 207 210 211 210 212 222 227 230 235 236 234 236 238 241 244 248 251 252 254 257 259 260 261 260 256 253 249 246 250 244 235 238 236 231 221
234 149 160 180 193 207 209 222 244 255 276 276 242 250 277 277 250 193 184 207 214 217 216 213 212 211 208 208 208 204 202 200 198 198 199 200 199 199 201 201 202 205 204 202 203 204 204 204 204 206 206 206 207 205 202 202 203 204 203 202 204 207 209 208 210 214 218 226 229 230 233 236 235 235 237 241 243 246 249 250 253 256 259 259 257 257 254 252 250 246 245 238 232 236 234 232 226
217 130 157 179 195 210 207 219 243 245 261 262 239 215 251 269 248 142 173 210 221 222 217 213 213 211 209 210 209 207 205 203 201 199 200 200 201 203 203 203 205 205 204 203 204 204 205 205 206 207 207 206 206 205 202 201 206 208 206 204 207 211 212 211 214 219 223 226 228 229 230 232 234 235 237 240 242 245 247 249 251 254 258 257 252 250 249 251 251 245 241 235 227 230 235 235 229
164 132 145 151 168 179 186 214 237 220 237 251 234 195 224 267 252 174 173 212 224 225 218 213 211 208 206 207 208 207 205 205 205 204 202 202 203 204 204 204 206 205 205 207 206 205 205 205 205 206 207 207 206 206 205 205 207 209 209 208 210 211 211 210 212 216 220 223 224 226 228 229 231 234 237 239 241 244 246 248 250 252 256 255 249 244 244 250 253 245 241 237 228 229 235 237 233
145 152 161 154 155 136 158 203 209 238 246 245 229 203 214 266 256 197 186 210 214 218 221 212 208 207 206 205 207 206 203 202 204 206 206 205 205 204 203 205 207 206 206 208 206 206 206 205 204 206 208 207 206 207 208 208 207 208 211 213 213 212 209 207 207 209 214 217 218 221 225 227 229 232 235 238 240 242 244 246 247 250 253 251 244 240 242 251 253 246 242 236 228 229 234 236 234
169 191 199 197 191 183 217 192 183 242 251 231 214 202 207 245 252 184 193 206 201 212 222 210 203 205 204 204 206 206 204 201 200 203 205 204 202 202 202 205 206 203 203 206 207 207 205 204 203 205 207 206 205 205 207 207 206 208 212 214 215 212 210 209 209 210 211 214 215 216 220 224 226 230 233 235 238 239 240 242 244 245 245 241 236 233 240 250 251 246 243 236 228 229 231 232 232
195 203 197 203 201 195 219 206 204 240 242 139 179 193 210 239 257 203 205 208 206 216 224 215 204 201 201 204 205 205 205 202 199 199 200 200 198 197 200 204 203 199 200 204 206 206 204 202 201 203 205 205 205 205 205 206 206 209 211 213 215 213 212 213 213 214 214 215 215 214 217 220 222 225 228 232 235 236 237 239 239 237 234 233 233 233 241 249 249 245 243 238 231 230 231 231 231
199 198 188 197 196 198 214 205 213 245 219 120 134 171 230 255 256 221 213 214 214 215 221 221 207 197 199 202 201 202 203 202 202 199 198 199 197 195 198 201 200 199 201 202 203 203 202 199 200 203 205 205 205 204 204 205 207 210 213 214 214 213 214 215 215 216 216 217 218 218 220 220 221 224 227 230 233 234 237 238 237 237 233 233 235 236 243 249 247 244 243 240 234 233 233 233 233
198 194 190 205 205 204 212 197 214 246 210 132 138 167 226 236 198 204 210 215 215 212 216 218 212 202 199 199 198 200 203 203 202 199 199 200 197 194 197 199 199 200 202 202 202 200 199 198 200 203 204 203 205 204 203 205 208 211 214 215 214 214 216 216 216 218 218 220 222 221 222 223 224 227 229 232 233 234 237 237 238 240 236 232 234 236 243 247 245 242 243 241 236 234 234 235 235
196 179 195 220 206 187 220 220 218 260 297 171 173 218 247 237 304 265 232 231 225 222 222 217 221 214 197 195 197 200 205 204 201 200 201 202 198 194 196 199 200 200 201 202 200 197 199 201 201 203 205 203 204 205 205 206 208 210 213 215 214 215 216 216 217 220 221 222 223 223 224 227 228 229 231 233 234 235 236 236 238 239 235 230 232 236 242 245 243 241 242 239 236 234 235 236 237
168 181 203 207 169 184 227 245 153 251 259 213 188 241 262 268 270 243 220 232 231 228 228 224 228 214 190 194 200 202 205 202 201 202 201 199 196 195 198 200 200 199 200 201 200 199 201 202 200 202 204 203 204 207 207 207 208 209 212 214 214 214 215 216 217 220 221 221 223 224 226 228 229 231 232 233 234 235 236 236 237 238 234 229 229 233 240 244 242 241 241 240 236 234 235 236 237
145 195 190 134 134 200 228 237 209 223 247 235 194 232 247 245 254 213 196 214 221 223 222 223 230 219 200 202 204 204 205 200 200 202 200 196 195 197 200 202 202 201 200 200 201 202 203 203 201 201 201 202 204 206 206 206 207 208 211 212 213 213 215 216 216 219 220 219 221 223 224 226 229 231 231 232 234 234 236 236 236 237 235 232 229 231 239 243 241 239 240 240 238 235 234 235 237
170 187 163 138 176 195 187 216 230 220 236 251 208 224 240 233 228 207 199 210 216 220 218 220 227 224 215 210 208 207 202 199 200 202 201 197 198 199 199 202 204 203 201 200 201 201 201 203 203 203 203 204 205 203 202 204 206 208 209 211 213 214 214 215 214 217 219 218 219 221 222 225 228 229 230 232 233 233 235 236 236 236 233 232 230 229 237 241 239 238 238 237 236 234 232 233 237
193 151 163 174 211 189 176 197 216 209 227 250 229 223 237 226 214 222 235 231 228 227 221 221 225 224 222 215 209 204 196 198 201 202 202 200 202 203 201 203 204 203 202 201 201 200 200 202 202 203 204 203 202 200 199 203 206 207 208 209 212 214 214 215 215 217 218 219 220 221 222 224 226 227 229 232 232 233 234 235 235 233 229 230 229 224 234 239 237 236 236 235 235 234 231 231 235
187 181 186 186 179 180 189 198 206 215 224 232 244 250 242 186 186 210 222 227 233 231 226 227 228 228 230 224 213 200 192 198 200 200 202 200 202 204 203 205 204 203 202 201 200 200 200 201 200 201 201 199 199 200 200 204 205 205 206 208 210 212 214 215 216 218 218 219 220 221 223 224 226 227 228 229 231 233 235 235 234 231 228 230 230 228 234 237 236 235 235 234 235 234 231 230 233
194 197 194 189 185 177 189 206 206 211 227 217 240 265 258 143 165 206 213 218 224 223 221 225 229 231 232 231 226 208 195 202 201 200 203 202 202 203 203 202 199 200 201 200 201 201 199 200 201 200 200 200 202 201 201 204 204 203 206 207 208 209 212 214 214 216 217 217 219 222 223 224 224 226 228 229 230 232 234 235 234 232 230 230 233 235 236 235 234 234 234 233 234 233 230 229 231